Dewpoint
44 44 45 45 46 46 47 47 47 47 46 43 41 41 37 35 33 34 35 41 38 36 33 33 29 31 31 32 30 29 27 26 24 22 20 16 15 19 17 21 15 21 12 13 12 13 21 17 16 15 14 15 15 19 22 20 18 25 26 26 27 48 17 14 16 18 18 19 18 14 15 13 14 19 21 14 13 22 20 15 22 15 20 14 14 8 19
44 44 44 45 45 46 46 47 47 47 46 44 42 38 37 36 36 37 39 40 44 34 28 28 27 30 28 28 24 24 23 22 20 18 18 15 14 16 22 14 14 20 20 21 23 16 18 18 18 22 16 20 32 19 27 24 24 26 28 23 30 19 19 17 14 15 20 19 21 16 17 14 17 13 19 14 14 15 22 24 23 18 17 12 10 4 16
44 44 44 45 45 46 46 47 47 47 47 46 40 36 38 38 39 40 41 39 40 37 39 33 26 33 31 29 28 26 23 21 20 18 17 16 16 22 22 15 16 17 19 22 20 19 16 21 21 26 21 19 20 19 21 24 24 32 37 45 30 26 22 24 13 4 1 6 9 12 14 11 16 19 11 19 14 19 17 11 16 12 19 21 17 16 24
44 44 44 45 45 46 46 47 46 46 46 46 41 40 38 36 29 33 34 37 41 39 41 33 27 26 27 21 26 27 23 19 21 19 20 21 20 22 23 24 21 22 20 25 24 19 21 21 26 23 24 19 19 20 27 24 26 42 45 39 34 23 25 25 21 15 13 19 22 24 12 16 9 10 10 19 23 24 20 19 18 14 15 12 19 23 21
44 44 44 45 45 46 46 47 46 46 46 46 40 38 39 38 32 30 31 34 35 39 35 30 28 26 31 20 26 25 26 25 19 22 21 22 24 24 25 25 27 28 25 25 26 27 25 28 28 28 27 24 21 25 26 30 39 39 36 39 23 22 17 21 25 24 20 20 14 8 11 10 9 10 14 16 22 22 18 11 8 18 18 12 23 25 24
44 44 44 45 45 45 46 47 46 46 46 46 40 27 29 30 33 37 36 33 31 32 34 35 31 27 29 26 27 25 24 24 24 23 23 23 24 26 25 24 24 25 29 28 24 27 27 27 25 27 28 28 28 18 19 27 40 31 18 33 25 21 13 19 16 18 14 13 14 14 13 11 11 12 18 16 20 21 13 14 16 18 10 10 20 26 24
44 44 45 45 45 46 46 46 46 46 45 46 28 24 27 32 32 36 39 31 39 36 38 37 26 26 29 26 24 24 25 25 23 25 28 24 25 25 23 25 23 23 24 27 25 26 24 23 29 26 25 28 26 26 26 20 19 18 24 22 28 18 16 21 14 17 18 17 17 16 14 13 12 16 20 22 20 19 19 18 20 21 19 22 24 24 23
44 44 45 45 45 46 46 46 47 46 45 43 30 28 25 24 28 29 35 38 35 31 28 31 24 25 27 25 25 21 23 25 24 24 25 24 26 27 27 22 22 22 22 23 23 25 28 25 22 27 26 25 25 23 23 20 23 19 23 23 29 17 20 24 24 20 20 19 18 16 15 17 17 21 25 25 21 21 23 23 24 25 22 24 24 23 23
44 45 45 45 45 46 46 47 47 45 45 39 38 32 30 29 32 32 31 31 27 27 26 25 24 23 23 23 23 24 21 23 25 24 24 24 26 26 27 25 22 20 21 23 23 25 27 27 26 28 28 23 28 20 25 16 21 21 24 27 23 25 17 25 24 17 17 20 17 18 16 16 20 23 26 27 23 22 24 25 26 22 21 22 23 22 20
45 45 45 45 45 46 46 47 47 46 45 41 38 34 36 32 35 36 33 26 28 24 25 28 26 25 26 23 21 21 22 22 24 25 24 23 22 24 27 28 22 21 22 21 24 25 24 24 23 22 23 23 21 18 17 14 17 20 21 25 20 23 20 19 18 18 14 19 19 16 18 17 15 19 25 28 25 25 25 25 26 26 23 22 20 19 24
45 45 44 45 45 46 46 47 47 47 44 41 40 38 37 34 33 35 33 25 23 22 24 24 26 27 26 22 21 22 22 23 24 26 23 22 22 24 23 25 25 21 22 24 22 23 24 23 23 23 23 23 23 22 19 16 14 15 23 21 23 26 25 19 22 14 12 18 22 22 16 7 10 21 29 30 25 24 23 23 25 26 26 22 24 24 25
45 45 45 45 45 45 46 47 47 47 46 43 41 39 39 37 36 35 29 22 20 23 23 23 25 27 23 21 21 21 22 23 24 28 24 28 24 26 22 24 25 23 21 24 25 24 24 24 22 19 18 17 17 17 18 17 15 13 14 22 18 17 18 17 19 16 13 16 18 12 6 8 22 27 29 27 26 25 24 25 25 25 26 26 24 24 25
45 45 44 45 45 45 46 46 47 47 47 45 41 38 41 40 36 34 29 24 20 21 23 22 22 24 24 24 24 24 24 25 26 30 29 28 23 24 23 23 22 19 22 23 23 25 21 23 23 23 21 17 15 15 14 14 14 15 12 14 20 18 17 19 14 19 14 12 9 5 3 18 28 26 28 31 29 28 24 23 24 26 25 26 24 24 25
45 45 44 44 44 45 45 46 47 47 47 46 42 41 42 38 36 33 31 28 23 22 24 22 22 24 26 26 26 26 25 26 27 27 26 28 24 20 19 18 16 21 22 26 27 27 27 26 20 19 20 16 21 20 17 15 14 15 13 12 18 21 21 20 13 18 10 11 11 12 19 19 22 22 24 24 19 22 22 19 20 26 25 24 24 24 25
44 44 45 44 44 45 45 46 46 47 47 47 41 41 41 39 38 35 35 30 26 23 24 24 24 25 26 25 26 26 26 27 27 26 25 26 23 24 24 23 21 20 23 23 21 27 22 22 19 17 19 14 9 14 19 11 13 19 20 14 17 21 17 21 14 13 19 13 9 9 8 6 14 24 28 28 26 27 26 22 21 26 24 25 22 22 24
44 44 44 44 44 44 45 46 46 47 47 47 43 40 41 40 39 38 35 31 26 23 22 28 28 27 25 24 25 26 26 25 27 26 26 26 23 24 25 26 24 23 20 21 24 22 23 21 18 13 11 14 18 14 17 17 17 18 22 23 24 25 22 22 17 16 15 12 10 6 5 5 18 23 25 26 24 27 27 22 21 24 24 24 21 21 22
44 44 44 44 44 44 45 46 46 47 47 47 43 41 39 41 39 37 35 32 24 21 22 25 29 27 23 23 25 26 27 26 27 24 25 25 25 25 27 28 24 22 21 23 22 25 25 24 22 20 21 21 17 15 21 21 21 20 21 23 23 24 25 24 18 16 17 14 12 11 19 17 22 25 26 24 23 28 20 12 13 20 23 24 21 21 21
43 44 44 44 44 44 45 46 46 47 47 47 44 40 40 42 41 38 36 31 25 21 24 25 24 23 22 22 23 27 29 29 28 27 25 27 25 25 27 27 19 22 26 22 22 24 22 22 19 19 19 24 24 24 15 20 19 18 21 24 23 25 26 24 16 18 20 21 17 20 22 26 26 25 25 22 29 22 15 11 14 21 23 21 21 21 22
43 44 44 44 44 44 45 46 47 47 47 47 43 40 39 42 40 37 36 33 27 22 21 23 24 24 24 26 27 28 28 27 27 25 26 26 24 27 28 28 25 21 23 22 24 21 20 20 25 22 20 22 26 19 20 21 19 20 23 23 23 25 23 24 24 20 17 18 19 18 21 24 25 26 24 25 23 15 15 21 26 24 23 24 23 23 23
43 44 44 44 44 44 45 46 47 47 47 47 44 38 40 43 40 38 34 31 30 20 22 23 24 22 23 24 23 23 25 26 27 25 24 23 27 29 26 24 27 24 24 24 22 21 19 17 19 21 20 16 23 28 20 19 18 19 22 24 23 23 22 22 20 22 22 18 18 17 15 23 31 30 21 22 17 16 22 23 26 27 24 23 24 24 24
43 43 44 44 44 44 45 46 47 47 47 46 45 39 37 38 41 38 37 35 29 24 24 26 23 19 21 26 26 27 26 23 24 24 27 27 29 27 17 20 24 22 20 19 16 19 18 17 19 16 20 18 16 21 15 20 21 18 20 19 19 22 22 22 21 24 18 18 17 17 22 22 25 22 19 20 22 22 24 24 23 25 25 24 24 24 25
43 43 44 44 44 44 46 46 47 47 47 46 44 38 36 38 41 38 39 38 29 24 25 26 25 24 24 24 26 27 24 26 29 29 26 26 28 27 26 27 26 25 24 23 22 19 22 19 20 16 13 16 21 14 16 17 13 16 18 20 16 17 20 20 17 20 20 19 23 25 28 22 23 24 23 24 25 26 25 25 23 24 25 27 25 25 26
43 43 43 44 44 44 45 46 46 47 47 47 44 38 36 39 38 38 35 31 31 34 34 27 31 28 25 23 24 24 25 29 34 33 31 28 26 27 26 25 25 28 27 27 22 21 22 20 15 16 18 18 16 13 16 16 12 16 15 18 18 16 19 22 19 17 20 21 22 23 21 23 24 25 26 24 25 26 27 26 24 26 27 27 26 27 28
42 43 43 43 44 44 45 46 46 46 47 47 45 37 37 39 41 36 34 33 29 26 28 27 26 22 24 23 20 21 22 27 31 31 33 32 26 26 27 29 28 28 26 27 25 22 21 19 20 18 14 19 19 14 12 12 11 17 18 13 18 14 15 17 14 17 19 14 22 22 21 24 25 24 26 27 27 27 28 28 27 26 27 27 28 27 28
42 42 42 43 44 44 45 46 46 46 46 47 45 41 41 38 36 36 32 28 29 27 20 22 22 23 23 21 21 19 19 25 31 30 30 32 27 22 20 25 28 25 23 25 28 26 24 17 19 16 14 20 19 13 18 13 14 18 11 16 17 15 18 15 16 15 14 14 21 22 24 24 25 26 25 25 26 27 28 27 27 27 28 29 29 29 30
41 42 42 43 43 44 45 45 46 46 46 46 45 37 37 38 38 37 37 36 33 27 23 22 25 31 21 20 21 18 19 21 20 27 29 32 28 31 28 30 28 34 29 29 28 23 23 22 20 19 16 16 22 15 13 15 14 18 12 16 16 14 24 10 15 15 17 20 22 23 23 24 26 27 27 26 26 26 27 28 28 28 29 29 30 31 30
42 42 43 43 43 44 45 45 46 45 45 46 44 40 38 39 38 36 35 34 28 26 27 25 24 27 24 28 22 19 19 22 23 23 24 23 32 31 31 28 26 28 28 26 27 23 24 22 21 18 20 16 19 18 18 16 15 11 12 17 22 19 16 17 17 10 13 17 20 23 14 15 20 24 26 27 28 28 27 28 29 29 29 29 29 30 30
43 43 43 43 44 44 45 45 46 45 45 45 44 41 40 38 35 36 37 38 33 27 26 25 26 30 30 29 27 21 18 22 22 24 18 19 28 29 24 25 27 23 24 23 24 25 23 15 18 21 20 22 17 15 22 18 19 18 19 18 21 17 18 18 10 10 11 19 24 25 22 22 24 25 26 28 29 28 29 29 30 30 30 30 29 29 29
43 43 43 43 44 45 45 45 46 45 45 45 41 40 39 38 37 36 38 39 37 32 29 29 30 26 20 22 25 16 16 27 28 26 26 21 25 28 23 22 20 27 25 24 23 23 20 20 23 18 18 22 20 15 13 9 10 11 16 20 23 24 24 22 21 21 21 24 26 26 24 22 25 26 27 28 30 30 30 31 31 31 30 29 29 29 28
43 43 43 43 44 45 45 45 46 45 44 39 38 35 30 34 36 36 38 40 38 34 28 26 24 26 28 21 24 26 20 24 28 30 25 22 22 23 22 22 24 29 24 21 21 14 24 19 19 21 24 24 18 13 7 11 10 15 20 22 25 26 26 26 27 22 20 25 26 26 25 25 26 27 28 30 33 33 30 30 31 30 30 31 29 28 29
42 42 43 43 44 45 45 45 46 46 43 35 33 25 23 20 25 36 38 38 38 35 29 27 27 25 24 27 24 24 24 23 21 21 25 24 23 23 25 19 23 22 16 22 20 25 20 16 17 17 25 25 25 13 13 11 8 15 19 24 25 25 25 25 27 27 27 27 28 28 28 28 28 29 29 29 31 31 29 30 31 34 32 32 29 30 31
43 43 43 44 44 45 45 46 46 46 37 34 31 28 26 22 26 36 40 42 39 34 29 26 22 20 21 24 28 28 24 27 27 28 27 26 22 24 20 19 16 22 30 21 22 14 18 22 16 19 22 27 27 15 14 11 9 15 21 24 25 25 26 27 27 28 29 29 28 26 25 26 27 27 27 28 30 31 29 28 29 28 32 32 31 31 31
43 43 43 44 45 45 46 46 46 45 37 38 42 43 43 43 42 41 42 39 36 33 28 24 21 20 15 18 27 26 26 28 26 24 22 26 21 19 16 25 22 22 39 20 17 13 23 16 17 13 20 23 16 16 14 8 13 18 23 27 25 25 26 27 29 28 27 27 27 24 23 25 26 28 29 30 31 31 28 28 28 28 28 28 28 29 30
43 44 44 45 45 46 46 46 46 44 41 37 34 35 38 42 40 42 40 38 35 31 27 24 18 15 17 24 21 24 26 19 20 21 19 29 25 17 17 17 21 17 21 15 25 18 23 21 18 18 21 18 21 11 9 14 19 22 25 26 26 26 27 27 27 26 26 27 28 27 28 29 29 30 30 30 29 29 31 29 28 27 27 28 28 29 31
44 44 45 45 45 46 46 45 36 39 33 34 35 38 39 43 40 42 40 36 24 26 24 24 19 19 21 21 19 22 26 22 20 21 15 27 23 16 19 17 19 12 24 23 21 18 17 18 23 16 15 19 13 10 12 18 23 24 25 26 26 26 25 24 24 26 27 27 28 28 29 30 28 29 30 31 29 29 30 30 29 28 27 28 30 31 31
44 45 45 45 46 46 40 40 38 36 34 33 34 40 46 46 44 38 40 40 33 26 23 22 19 17 17 13 10 20 26 24 23 21 21 20 22 23 21 18 12 23 25 17 14 19 14 23 16 12 14 12 12 14 18 21 24 25 25 25 26 26 24 24 24 26 27 28 30 30 29 28 28 28 30 30 28 27 28 29 30 31 29 30 30 29 29
45 46 46 46 43 38 34 33 38 37 32 32 36 43 44 44 42 40 37 35 36 35 27 22 21 22 19 15 18 21 22 17 20 20 22 19 19 22 18 17 13 25 18 16 17 14 20 24 15 11 11 10 13 21 22 24 25 25 25 26 27 26 26 26 28 28 27 27 28 28 28 28 29 29 28 28 27 27 27 28 29 29 29 28 28 28 28
45 46 39 37 35 31 31 31 32 34 41 38 41 35 32 33 26 26 30 30 30 36 29 25 21 23 22 17 16 23 22 20 21 18 22 21 17 17 19 15 20 16 7 11 14 24 19 15 14 11 12 18 21 24 25 26 26 26 27 27 27 27 27 29 29 28 28 27 25 27 28 28 29 29 28 27 27 27 25 27 28 28 28 29 29 29 29
43 39 36 35 31 28 29 31 39 43 38 38 35 29 27 29 25 24 25 27 25 29 27 24 25 24 20 18 19 25 22 17 18 20 16 23 17 17 19 10 17 14 9 9 15 16 7 11 11 12 13 21 24 25 27 28 28 28 28 28 27 28 30 29 29 28 27 27 26 27 28 28 29 28 28 29 29 28 27 27 27 28 29 29 29 30 31
37 34 30 28 30 31 37 39 43 40 36 29 28 25 22 24 23 21 23 22 22 24 23 21 24 22 21 20 20 18 27 22 15 15 15 19 21 13 16 14 18 10 5 5 13 18 8 5 8 6 9 18 24 26 27 28 28 28 28 26 29 30 30 30 30 30 29 28 29 29 28 28 28 28 28 29 28 26 27 28 28 28 28 29 30 31 31
34 33 30 29 32 34 36 38 37 33 28 24 21 20 18 17 22 21 17 16 15 17 21 23 20 20 24 24 23 18 30 28 25 23 19 16 24 21 15 9 16 9 6 5 16 14 12 8 7 6 9 19 25 26 26 27 27 27 26 28 30 30 29 28 29 29 30 30 30 29 29 30 31 30 29 29 28 28 28 27 27 26 27 29 30 31 31
35 34 34 36 37 38 36 32 30 26 23 23 18 16 19 20 21 21 18 12 17 17 18 17 15 20 22 25 22 24 24 27 25 23 19 15 23 14 11 14 15 6 4 10 16 12 9 4 3 5 12 22 26 26 25 26 27 26 27 29 31 29 28 29 28 29 30 31 30 29 28 28 28 28 28 28 28 28 29 27 24 23 24 27 30 29 28
43 42 42 38 35 30 31 28 26 23 19 17 13 12 16 15 17 14 18 18 18 15 17 25 22 27 28 28 23 24 24 28 23 20 18 15 22 17 12 11 9 6 9 18 12 9 6 4 3 12 18 24 27 26 25 25 25 26 27 30 31 30 30 30 29 30 29 30 29 29 28 28 28 29 28 28 26 23 23 24 22 23 23 25 24 25 25
39 38 34 32 30 29 24 18 23 20 17 17 13 8 12 12 17 19 16 20 23 23 24 22 22 24 19 25 22 22 23 24 27 22 21 20 16 12 11 8 8 13 16 11 9 7 6 8 11 15 18 26 29 27 26 24 24 27 29 31 30 30 30 29 29 28 29 28 29 29 29 29 28 29 27 24 23 22 23 23 23 24 23 23 23 23 24
32 28 29 26 24 24 18 10 18 18 13 15 19 15 16 12 17 21 22 28 23 21 24 23 23 23 21 23 26 24 23 19 25 19 15 16 11 12 9 8 12 13 9 6 7 6 8 8 17 18 23 26 27 26 25 23 26 28 29 29 30 30 30 30 29 28 28 28 29 28 28 28 28 28 25 24 24 24 23 21 22 23 22 23 22 22 23
30 29 26 19 15 18 18 15 15 14 20 20 18 22 20 20 21 23 25 23 24 24 23 24 23 24 22 24 18 19 21 23 18 19 22 18 14 12 16 19 15 11 9 8 6 5 7 16 17 19 23 26 26 25 24 23 25 26 29 30 30 30 30 30 29 29 29 29 28 28 28 28 27 26 25 25 24 22 24 23 23 23 23 22 20 20 22
29 28 26 23 18 21 21 16 17 20 20 20 21 21 21 22 24 23 23 27 24 27 27 25 23 22 18 20 20 22 22 22 19 21 21 16 16 18 19 14 11 11 8 4 3 3 7 16 19 21 23 25 23 23 22 21 21 25 26 30 31 31 30 30 30 30 29 29 29 29 29 28 28 28 27 26 22 22 24 24 23 24 23 21 20 22 22
28 27 26 19 17 21 18 21 22 23 22 22 22 23 23 25 25 25 29 28 27 28 24 23 22 25 25 26 20 19 20 21 18 19 20 19 19 15 13 13 12 11 8 6 8 13 16 18 19 25 25 25 26 23 21 20 20 22 26 30 31 31 31 30 30 30 30 29 29 29 29 29 29 28 26 24 20 22 24 24 22 23 23 22 23 22 22
30 27 25 23 23 23 21 23 23 21 22 23 24 23 23 23 23 24 25 26 28 25 26 24 23 24 18 22 18 19 16 21 16 17 21 20 15 11 10 8 8 7 7 10 15 16 18 21 25 26 27 26 24 23 21 22 21 20 23 29 31 32 31 31 31 31 31 30 30 29 29 29 29 28 28 24 22 20 23 24 23 23 22 21 20 20 20
30 28 27 25 24 23 25 24 23 24 23 24 23 23 23 23 22 24 26 25 26 24 27 28 29 26 23 20 14 14 14 17 17 19 17 17 17 18 16 12 9 7 10 15 16 19 24 28 28 26 26 26 25 23 22 22 24 23 23 26 30 31 31 32 32 32 32 31 30 30 30 29 29 28 27 23 21 20 22 23 23 21 21 21 20 20 19
32 29 27 27 24 23 22 19 17 20 23 23 23 24 24 23 22 22 28 25 25 24 24 22 25 22 20 18 16 14 15 20 17 13 11 12 15 16 16 14 12 15 18 21 20 21 24 25 26 24 25 26 25 24 23 23 23 22 22 24 27 29 30 31 32 32 32 32 31 30 30 29 29 29 29 26 22 21 20 22 23 21 20 20 19 18 18
29 26 26 29 28 27 26 26 25 26 25 25 25 25 24 24 24 26 31 25 26 21 21 24 22 21 21 18 17 17 19 17 14 13 11 13 15 12 12 15 17 19 21 23 27 27 26 27 28 28 27 26 25 24 24 24 23 22 23 23 25 26 28 28 30 31 32 32 31 31 30 30 30 29 29 24 22 20 17 18 22 21 20 19 19 19 18